Location: Unspecified
(51.0950°N, 12.9690°E)
Time: 09:45:35
(UTC+00:00)

ISS - Visible Passes

Search period start: 16 September 2024 00:00
Search period end: 26 September 2024 00:00
Orbit: 414 x 424 km, 51.6° (Epoch: 16 September)

Date Brightness Start Highest point End Pass type
(mag) Time Alt. Az. Time Alt. Az. Time Alt. Az.
16 Sep -3.8 18:42:02 10° WSW 18:45:23 71° SSE 18:47:07 26° E visible
16 Sep -1.3 20:18:51 10° W 20:20:05 21° W 20:20:05 21° W visible
17 Sep -3.5 17:54:46 10° WSW 17:58:04 55° SSE 18:01:23 10° E visible
17 Sep -3.6 19:31:29 10° W 19:34:35 71° WNW 19:34:35 71° WNW visible
18 Sep -3.8 18:44:21 10° W 18:47:43 84° N 18:49:15 30° E visible
18 Sep -1.1 20:21:14 10° W 20:22:14 18° W 20:22:14 18° W visible
19 Sep -3.8 17:57:26 10° WSW 18:00:48 86° S 18:04:05 11° E visible
19 Sep -3.1 19:34:20 10° W 19:37:05 56° WNW 19:37:05 56° WNW visible
20 Sep -3.8 18:47:39 10° W 18:51:02 80° N 18:52:07 40° E visible
20 Sep -0.7 20:24:33 10° W 20:25:08 14° W 20:25:08 14° W visible
21 Sep -3.7 18:01:11 10° W 18:04:33 79° N 18:07:22 14° E visible
21 Sep -2.5 19:38:05 10° W 19:40:24 39° W 19:40:24 39° W visible
22 Sep -3.8 18:51:52 10° W 18:55:15 82° SSW 18:55:52 56° ESE visible
23 Sep -3.8 18:05:51 10° W 18:09:15 87° N 18:11:35 19° E visible
23 Sep -1.7 19:42:51 10° W 19:44:38 25° WSW 19:44:38 25° WSW visible
24 Sep -3.3 18:57:02 10° W 19:00:18 49° SSW 19:00:35 47° S visible
25 Sep -3.5 18:11:26 10° W 18:14:48 63° SSW 18:16:47 22° SE visible
25 Sep -1.0 19:48:55 10° W 19:49:52 14° WSW 19:49:52 14° WSW visible
